DW9281 Weather Reports


Display with metric or nautical units.
time (UTC)temp
F
wind
direction
speed
MPH
gust
MPH
rain 1hr
in
rain 24hr
in
rain mn
in
humidity
%
barometer
mb
20190116162503 43 0 0.0 0.0 0.00 0.00 0.00 43 1014.0
20190116162002 44 0 0.0 0.0 0.00 0.00 0.00 43 1014.0
20190116161515 44 181 0.0 2.0 0.00 0.00 0.00 43 1014.0
20190116160502 45 181 1.0 3.0 0.00 0.00 0.00 42 1014.0
20190116154516 47 181 3.0 6.0 0.00 0.00 0.00 41 1013.0
20190116154003 47 181 3.0 7.0 0.00 0.00 0.00 41 1013.0
20190116153503 47 181 2.0 7.0 0.00 0.00 0.00 41 1013.0
20190116153015 47 181 2.0 5.0 0.00 0.00 0.00 41 1014.0
20190116152503 47 181 2.0 9.0 0.00 0.00 0.00 41 1014.0
20190116151515 48 181 3.0 9.0 0.00 0.00 0.00 40 1014.0
20190116150503 49 181 2.0 7.0 0.00 0.00 0.00 40 1014.0
20190116150015 49 181 2.0 4.0 0.00 0.00 0.00 40 1014.0
20190116145003 50 181 2.0 6.0 0.00 0.00 0.00 40 1014.0
20190116143015 50 181 2.0 5.0 0.00 0.00 0.00 40 1015.0
20190116142503 50 181 2.0 4.0 0.00 0.00 0.00 40 1015.0
20190116142003 50 181 2.0 6.0 0.00 0.00 0.00 40 1015.0
20190116141002 50 181 2.0 10.0 0.00 0.00 0.00 40 1015.0
20190116135502 49 181 2.0 6.0 0.00 0.00 0.00 41 1015.0
20190116135003 48 181 3.0 6.0 0.00 0.00 0.00 41 1015.0
20190116133503 48 181 2.0 6.0 0.00 0.00 0.00 41 1015.0
20190116133016 48 181 2.0 6.0 0.00 0.00 0.00 41 1015.0
20190116132003 48 181 2.0 5.0 0.00 0.00 0.00 41 1015.0
20190116131516 48 181 2.0 7.0 0.00 0.00 0.00 41 1015.0
20190116131003 48 181 2.0 7.0 0.00 0.00 0.00 41 1015.0
20190116125003 48 181 2.0 5.0 0.00 0.00 0.00 41 1015.0
20190116124515 48 181 1.0 4.0 0.00 0.00 0.00 42 1014.0
20190116124003 48 181 1.0 4.0 0.00 0.00 0.00 41 1014.0
20190116123503 48 181 1.0 6.0 0.00 0.00 0.00 41 1014.0
20190116123015 48 181 1.0 6.0 0.00 0.00 0.00 41 1015.0
20190116122503 49 181 1.0 3.0 0.00 0.00 0.00 41 1015.0
20190116122003 49 181 1.0 9.0 0.00 0.00 0.00 41 1015.0
20190116120503 49 181 2.0 6.0 0.00 0.00 0.00 41 1014.0
20190116120015 49 181 1.0 6.0 0.00 0.00 0.00 42 1015.0
20190116115503 49 181 1.0 6.0 0.00 0.00 0.00 42 1015.0
20190116115003 49 181 1.0 6.0 0.00 0.00 0.00 42 1015.0
20190116114003 49 181 1.0 4.0 0.00 0.00 0.00 42 1015.0
20190116113503 49 181 1.0 3.0 0.00 0.00 0.00 42 1015.0
20190116112503 48 181 2.0 6.0 0.00 0.00 0.00 42 1015.0
20190116111515 48 181 2.0 4.0 0.00 0.00 0.00 42 1015.0
20190116111003 48 181 1.0 4.0 0.00 0.00 0.00 41 1015.0
20190116110015 49 181 1.0 5.0 0.00 0.00 0.00 40 1015.0
20190116105503 49 181 1.0 5.0 0.00 0.00 0.00 40 1015.0
20190116105004 49 181 1.0 3.0 0.00 0.00 0.00 40 1015.0
20190116104514 49 181 1.0 3.0 0.00 0.00 0.00 41 1015.0
20190116104003 49 181 1.0 4.0 0.00 0.00 0.00 41 1015.0
20190116103014 49 181 0.0 2.0 0.00 0.00 0.00 43 1015.0
20190116102503 49 181 0.0 2.0 0.00 0.00 0.00 44 1015.0
20190116102002 48 181 0.0 2.0 0.00 0.00 0.00 44 1015.0
20190116101514 48 181 0.0 1.0 0.00 0.00 0.00 47 1015.0
20190116101003 47 0 0.0 0.0 0.00 0.00 0.00 48 1015.0
20190116100503 47 0 0.0 0.0 0.00 0.00 0.00 49 1015.0
20190116100014 46 0 0.0 0.0 0.00 0.00 0.00 49 1015.0
20190116095003 45 0 0.0 0.0 0.00 0.00 0.00 50 1015.0
20190116094003 45 0 0.0 0.0 0.00 0.00 0.00 52 1015.0
20190116093503 44 0 0.0 0.0 0.00 0.00 0.00 53 1015.0
20190116093014 44 0 0.0 0.0 0.00 0.00 0.00 55 1016.0
20190116090503 41 0 0.0 0.0 0.00 0.00 0.00 56 1016.0
20190116085003 41 0 0.0 0.0 0.00 0.00 0.00 59 1016.0
20190116084514 41 0 0.0 0.0 0.00 0.00 0.00 62 1015.0
20190116083503 41 0 0.0 0.0 0.00 0.00 0.00 63 1015.0
20190116083014 40 0 0.0 0.0 0.00 0.00 0.00 64 1015.0
20190116082503 39 0 0.0 0.0 0.00 0.00 0.00 64 1015.0
20190116082003 38 0 0.0 0.0 0.00 0.00 0.00 64 1015.0
20190116080514 36 0 0.0 0.0 0.00 0.00 0.00 63 1015.0
20190116075503 35 0 0.0 0.0 0.00 0.00 0.00 62 1015.0
20190116074002 34 0 0.0 0.0 0.00 0.00 0.00 61 1015.0
20190116073513 34 0 0.0 0.0 0.00 0.00 0.00 62 1015.0
20190116071503 33 0 0.0 0.0 0.00 0.00 0.00 62 1015.0
20190116070513 33 0 0.0 0.0 0.00 0.00 0.00 62 1015.0
20190116070004 33 0 0.0 0.0 0.00 0.00 0.00 63 1015.0
20190116065504 33 0 0.0 0.0 0.00 0.00 0.00 62 1015.0
20190116065014 33 0 0.0 0.0 0.00 0.00 0.00 62 1015.0
20190116064503 33 0 0.0 0.0 0.00 0.00 0.00 61 1014.0
20190116063513 33 0 0.0 0.0 0.00 0.00 0.00 60 1014.0
20190116063003 33 0 0.0 0.0 0.00 0.00 0.00 60 1015.0
20190116062503 33 0 0.0 0.0 0.00 0.00 0.00 60 1015.0
20190116061003 34 0 0.0 0.0 0.00 0.00 0.00 59 1015.0
20190116054503 34 0 0.0 0.0 0.00 0.00 0.00 57 1015.0
20190116053513 34 0 0.0 0.0 0.00 0.00 0.00 57 1015.0
20190116045001 35 0 0.0 0.0 0.00 0.00 0.00 54 1015.0
20190116044514 35 0 0.0 0.0 0.00 0.00 0.00 54 1015.0
20190116043502 35 0 0.0 0.0 0.00 0.00 0.00 54 1015.0
20190116043014 35 0 0.0 0.0 0.00 0.00 0.00 54 1015.0
20190116042502 35 0 0.0 0.0 0.00 0.00 0.00 54 1015.0
20190116042003 35 0 0.0 0.0 0.00 0.00 0.00 54 1015.0
20190116041514 35 0 0.0 0.0 0.00 0.00 0.00 54 1015.0
20190116040015 35 0 0.0 0.0 0.00 0.00 0.00 54 1015.0
20190116035503 35 0 0.0 0.0 0.00 0.00 0.00 55 1015.0
20190116034002 35 0 0.0 0.0 0.00 0.00 0.00 56 1015.0
20190116033014 34 0 0.0 0.0 0.00 0.00 0.00 56 1016.0
20190116032002 33 0 0.0 0.0 0.00 0.00 0.00 57 1016.0
20190116031002 32 0 0.0 0.0 0.00 0.00 0.00 57 1015.0
20190116030502 32 0 0.0 0.0 0.00 0.00 0.00 57 1015.0
20190116025014 30 0 0.0 0.0 0.00 0.00 0.00 58 1015.0
20190116024502 30 0 0.0 0.0 0.00 0.00 0.00 58 1016.0
20190116024002 30 0 0.0 0.0 0.00 0.00 0.00 58 1016.0
20190116023515 30 0 0.0 0.0 0.00 0.00 0.00 58 1016.0
20190116023003 30 0 0.0 0.0 0.00 0.00 0.00 58 1016.0
20190116022016 29 0 0.0 0.0 0.00 0.00 0.00 58 1016.0
20190116020515 29 0 0.0 0.0 0.00 0.00 0.00 58 1016.0
20190116020002 29 0 0.0 0.0 0.00 0.00 0.00 58 1016.0
20190116015503 29 0 0.0 0.0 0.00 0.00 0.00 57 1016.0
20190116014502 29 0 0.0 0.0 0.00 0.00 0.00 56 1016.0
20190116014003 30 0 0.0 0.0 0.00 0.00 0.00 56 1016.0
20190116012015 30 0 0.0 0.0 0.00 0.00 0.00 55 1016.0
20190116011002 30 0 0.0 0.0 0.00 0.00 0.00 54 1016.0
20190116010516 29 0 0.0 0.0 0.00 0.00 0.00 54 1016.0
20190116005019 30 0 0.0 0.0 0.00 0.00 0.00 54 1016.0
20190116004002 30 0 0.0 0.0 0.00 0.00 0.00 54 1016.0
20190116003516 30 0 0.0 0.0 0.00 0.00 0.00 54 1016.0
20190116003003 30 0 0.0 0.0 0.00 0.00 0.00 53 1016.0
20190116002502 30 0 0.0 0.0 0.00 0.00 0.00 53 1016.0
20190116002016 30 0 0.0 0.0 0.00 0.00 0.00 53 1016.0
20190116001002 31 0 0.0 0.0 0.00 0.00 0.00 51 1016.0
20190116000003 31 0 0.0 0.0 0.00 0.00 0.00 48 1016.0
20190115234002 32 0 0.0 0.0 0.00 0.00 0.00 47 1016.0
20190115233516 33 0 0.0 0.0 0.00 0.00 0.00 47 1016.0
20190115233002 33 0 0.0 0.0 0.00 0.00 0.00 47 1017.0
20190115232016 33 0 0.0 0.0 0.00 0.00 0.00 46 1017.0
20190115231003 34 0 0.0 0.0 0.00 0.00 0.00 45 1017.0
20190115224502 37 181 0.0 1.0 0.00 0.00 0.00 43 1017.0
20190115224003 37 181 0.0 2.0 0.00 0.00 0.00 43 1017.0
20190115223002 37 181 0.0 1.0 0.00 0.00 0.00 42 1017.0
20190115222503 38 181 0.0 1.0 0.00 0.00 0.00 42 1017.0
20190115222016 38 181 0.0 1.0 0.00 0.00 0.00 43 1017.0
20190115221502 38 181 0.0 1.0 0.00 0.00 0.00 43 1017.0
20190115214503 38 181 0.0 1.0 0.00 0.00 0.00 43 1017.0
20190115213003 38 0 0.0 0.0 0.00 0.00 0.00 43 1017.0
20190115212502 38 0 0.0 0.0 0.00 0.00 0.00 43 1017.0
20190115211002 38 181 0.0 1.0 0.00 0.00 0.00 44 1017.0
20190115210515 38 0 0.0 0.0 0.00 0.00 0.00 44 1017.0
20190115210003 38 0 0.0 0.0 0.00 0.00 0.00 44 1017.0
20190115205016 38 181 0.0 1.0 0.00 0.00 0.00 45 1017.0
20190115203515 36 181 0.0 1.0 0.00 0.00 0.00 46 1017.0
20190115203003 36 0 0.0 0.0 0.00 0.00 0.00 46 1017.0
20190115202016 36 0 0.0 0.0 0.00 0.00 0.00 46 1017.0
20190115201503 36 0 0.0 0.0 0.00 0.00 0.00 47 1017.0
20190115201002 36 0 0.0 0.0 0.00 0.00 0.00 47 1017.0
20190115200003 36 0 0.0 0.0 0.00 0.00 0.00 48 1017.0
20190115195015 35 0 0.0 0.0 0.00 0.00 0.00 49 1017.0
20190115194503 35 0 0.0 0.0 0.00 0.00 0.00 50 1017.0
20190115193515 34 0 0.0 0.0 0.00 0.00 0.00 50 1017.0
20190115193003 34 0 0.0 0.0 0.00 0.00 0.00 50 1017.0
20190115192015 34 0 0.0 0.0 0.00 0.00 0.00 51 1017.0
20190115191503 34 0 0.0 0.0 0.00 0.00 0.00 51 1016.0
20190115185502 33 0 0.0 0.0 0.00 0.00 0.00 51 1016.0
20190115184503 34 0 0.0 0.0 0.00 0.00 0.00 49 1017.0
20190115184003 34 0 0.0 0.0 0.00 0.00 0.00 49 1017.0
20190115183515 34 0 0.0 0.0 0.00 0.00 0.00 48 1017.0
20190115182503 34 0 0.0 0.0 0.00 0.00 0.00 48 1017.0
20190115181003 34 0 0.0 0.0 0.00 0.00 0.00 44 1017.0
20190115180516 35 0 0.0 0.0 0.00 0.00 0.00 43 1017.0
20190115180003 35 0 0.0 0.0 0.00 0.00 0.00 43 1017.0
20190115173516 36 0 0.0 0.0 0.00 0.00 0.00 41 1017.0
20190115171502 37 0 0.0 0.0 0.00 0.00 0.00 40 1017.0
20190115164516 38 0 0.0 0.0 0.00 0.00 0.00 39 1017.0
20190115164003 38 0 0.0 0.0 0.00 0.00 0.00 38 1017.0
20190115163503 38 0 0.0 0.0 0.00 0.00 0.00 37 1017.0